Tracking 34717 objects as of 14-Jul-2026
HD Live streaming from Space Station
objects crossing your sky now

STARLINK-32689

Track STARLINK-32689 now!
10-day predictions
STARLINK-32689 is classified as:


NORAD ID: 62440
Int'l Code: 2024-251J
Perigee: 469.0 km
Apogee: 470.8 km
Inclination: 53.2 °
Period: 93.8 minutes
Semi major axis: 6840 km
RCS: Unknown
Launch date: December 29, 2024
Source: United States (US)
Launch site: AIR FORCE WESTERN TEST RANGE (AFWTR)
Your satellite tracking list
Your tracking list is empty




NASA's NSSDC Master Catalog

Two Line Element Set (TLE):
1 62440U 24251J   26195.02350678  .00017336  00000-0  52329-3 0  9998
2 62440  53.1600 107.5782 0001274  92.1890 267.9258 15.34384687 87302
Source of the keplerian elements: AFSPC